Pagrindinis puslapis
METAR-TAF:

METAR-TAF

Oro uostai :

Burnet Municipal Airport (Kate Craddock Field)

Burnet, Teksasas, Jungtinės Amerikos Valstijos

platuma: 30-44-26N, ilguma: 098-14-07W, Aukštis: 392 m

Dabartinis oras

Ataskaita buvo paskelbta 28 minutes, ne 03:53 UTC
Vėjas 3 kt iš Rytų
Temperatūra 17°C
Drėgmė 77%
Slėgis 1025 hPa
Matomumas: 16.1 km
Giedras dangus

METAR: KBMQ 140353Z AUTO 10003KT 10SM CLR 17/13 A3026 RMK AO2 SLP238 T01720133

Laikas: 23:21 (04:21 UTC)


TAF: trūkstamas

Orai ataskaitas ir orų prognozės (METAR, TAF).

turimą stotys yra geltonos ir raudonos taškus žemėlapyje.

Perkelti pele per norėdami pamatyti stoties vardą.

Tada spustelėkite, norėdami matyti oro stebėjimo ir prognozės.

Norėdami pakeisti žemėlapį: spustelėkite ant žalios mygtukų su juodo kryžiaus žemyn,; žalią mygtuką su brūkšneliu, jei norite nutolinti; arba žalių rodyklių gretimoms žemėlapius.


METAR-TAF: